Regional Weather Roundup
Issued by NWS New Orleans/Baton Rouge, LA

Home | Current Version | Previous Version | Text Only | Print | Product List | Glossary On
Versions: 1 2 3 4 5 6 7 8 9 10 11 12 13 14 15 16 17 18 19 20 21 22 23 24 25 26 27 28 29 30 31 32 33 34 35 36 37 38 39 40 41 42 43 44 45 46 47 48 49 50
207
ASUS44 KLIX 220305
RWRLIX
NEW ORLEANS REGIONAL WEATHER ROUNDUP
NATIONAL WEATHER SERVICE NEW ORLEANS LA
900 PM CST SUN DEC 21 2014

NOTE: "FAIR" INDICATES FEW OR NO CLOUDS BELOW 12,000 FEET WITH NO
      SIGNIFICANT WEATHER AND/OR OBSTRUCTIONS TO VISIBILITY.
      SKY/WX - SKY CONDITION AND SIGNIFICANT WEATHER.
      TMP - AIR TEMPERATURE.     DP    - DEWPOINT TEMPERATURE.
      RH  - RELATIVE HUMIDITY.   PRES  - PRESSURE.
      HI  - HEAT INDEX.          WCI   - WIND CHILL INDEX.

*  THESE STATIONS ARE NOT NWS OR FAA STATIONS AND ARE NOT UNDER
   NWS QUALITY CONTROL.

LAZ038-040-048-061>063-065>067-069-220400-
SOUTHEAST LOUISIANA

CITY           SKY/WX    TMP DP  RH WIND       PRES   REMARKS
N.O. AUDUBON     N/A     56  55  96 MISG        N/A
N.O. INTL ARPT CLOUDY    56  52  86 E6        29.98S FOG
N.O. LAKEFRONT CLOUDY    57  53  86 SE10      30.00R
N.O. DOWNTOWN* CLOUDY    55  50  82 E5        29.99R
SLIDELL        CLOUDY    54  51  90 CALM      29.98R FOG
BATON ROUGE    CLOUDY    52  49  89 CALM      29.97S
BOOTHVILLE     CLOUDY    57  57 100 E3        29.98S FOG
BELLE CHASSE   CLOUDY    56  54  93 E5        29.98R
BOGALUSA*        N/A     54  50  86 CALM      30.00S
GALLIANO*      CLOUDY    58  56  94 MISG      29.98S FOG
NEW ROADS*     CLOUDY    51  50  96 CALM      29.97F FOG
GONZALES*      MOCLDY    50  50 100 CALM      29.98R FOG
HAMMOND*       NOT AVBL
HOUMA*         CLOUDY    54  53  95 E5        29.97S FOG
PORT FOURCHON* CLOUDY    59  57  94 E10G16    29.99F FOG

$$

MSZ070-080>082-220400-
SOUTHERN MISSISSIPPI

CITY           SKY/WX    TMP DP  RH WIND       PRES   REMARKS
MCCOMB         CLOUDY    52  48  86 E3        29.98F
GULFPORT       CLOUDY    56  53  90 E8        29.98F FOG
BILOXI         CLOUDY    55  55 100 E7        29.98F
PASCAGOULA     CLOUDY    56  54  93 E6        29.99F
STENNIS ARPT*  CLOUDY    55  52  88 E3        29.99S

$$

COASTAL OBSERVATIONS
LAKE AND NEARSHORE STATIONS

STATION/POSITION TIME  TEMP    WIND        PRES    WAVE
                       AIR SEA DIR/SP/G            HT/PER
                 (UTC) (F)     (DEG/KT/KT) (MB)    (FT/S)
PASCAGOULA       0300   57      60/  9/ 12 1014.9
WAVELAND YACHT   0300   57     100/  6/  8 1014.5
GRAND ISLE       0300   59 60   80/  8/ 12 1014.9
SOUTHWEST PASS   0300   62                 1014.8
NEW CANAL        0300   55 56   80/  2/  5 1015.7
SHELL BEACH      0300   57 57   90/  8/ 10 1015.0

OFFSHORE STATIONS

STATION/POSITION TIME  TEMP    WIND        PRES    WAVE
                       AIR SEA DIR/SP/G            HT/PER
                 (UTC) (F)     (DEG/KT/KT) (MB)    (FT/S)
64 S DAUPHIN ISL 0300   69 74   70/ 12/ 16 1013.5    2/ 6

$$




USA.gov is the U.S. government's official web portal to all federal, state and local government web resources and services.